User: anonymous   Login
Location: Albany
(35.0000°S, 118.0000°E)
Time: 20:16:31
(UTC-04:00)
Language:

Centaur D-1AR AC-48 - Orbit

View from above orbital plane
View from above orbital plane
View from above satellite
View from above satellite

Ground track
Ground track

The orbit data is extracted from the following two-line orbital elements,

1 10779U 78035B   17175.94577332 -.00000133 +00000-0 +43152-3 0  9994
2 10779 021.7841 065.3515 7186957 020.2317 010.3015 02.22662088318819
Epoch (UTC): 24 June 2017 22:41:54
Eccentricity: 0.7186957
inclination: 21.7841°
perigee height: 590 km
apogee height: 36198 km
right ascension of ascending node: 65.3515°
argument of perigee: 20.2317°
revolutions per day: 2.22662088
mean anomaly at epoch: 10.3015°
orbit number at epoch: 31881

The dashed part of the orbit path shows where the satellite is in the earth's shadow,  

DLR